Location: Lango�lan
(48.1202°N, 3.2340°W)
Time: 02:37:03
(UTC+00:00)

CZ-4B DEB - Pass Details

Date: 23 October 2019
Orbit: 840 x 862 km, 99.1° (Epoch: 18 November)

Event Time Altitude Azimuth Distance (km) Brightness Sun altitude
Rises 05:51:37 0° 13° (NNE) 3,416 7.4 -9.3°
Reaches altitude 10° 05:54:00 10° 11° (NNE) 2,474 6.7 -9.0°
Maximum altitude 05:59:27 72° 289° (WNW) 887 4.2 -8.1°
Drops below altitude 10° 06:04:52 10° 206° (SSW) 2,451 6.5 -7.2°
Sets 06:07:13 0° 204° (SSW) 3,382 7.2 -6.8°
